Hot Springs, VA

3:08 PM EST on January 19, 2017 (GMT -0500)
Ingalls

Weather History for KHSP - February, 2012

Change the Weather History Date:

Sunday, February 12, 2012

  Actual Average Record
Temperature  
Mean Temperature 11 °F -  
Max Temperature 19 °F 35 °F 57 °F (1999)
Min Temperature 3 °F 21 °F 3 °F (2012)
Degree Days  
Heating Degree Days 54    
Moisture  
Dew Point 3 °F    
Average Humidity 75    
Maximum Humidity 85    
Minimum Humidity 58    
Precipitation  
Precipitation 0.00 in - - ()
Sea Level Pressure  
Sea Level Pressure 29.91 in    
Wind  
Wind Speed 25 mph (WNW)    
Max Wind Speed 34 mph    
Max Gust Speed 50 mph    
Visibility 9 miles    
Events      
Averages and records for this station are not official NWS values.
T = Trace of Precipitation, MM = Missing Value Source: NWS Daily Summary

Daily Weather History Graph

Daily Weather History Graph

Search for Another Location

Airport or City:

Trip Planner

Search our weather history database for the weather conditions in past years. The results will help you decide how hot, cold, wet, or windy it might be!

Date:

Astronomy

Feb. 12, 2012 Rise Set
Actual Time 7:13 AM EST 5:54 PM EST
Civil Twilight 6:46 AM EST 6:21 PM EST
Nautical Twilight 6:15 AM EST 6:52 PM EST
Astronomical Twilight 5:44 AM EST 7:23 PM EST
Moon 11:43 PM EST (2/12) 9:37 AM EST (2/12)
Length of Visible Light 11h 35m
Length of Day
10h 41m
Waning Gibbous, 72% of the Moon is Illuminated
Feb 12
Waning Gibbous
Feb 14
Last Quarter
Feb 21
New
Feb 29
First Quarter
Mar 8
Full

Hourly Weather History & Observations

Time (EST) Temp. Windchill Dew Point Humidity Pressure Visibility Wind Dir Wind Speed Gust Speed Precip Events Conditions
12:15 AM 3.2 °F -19.9 °F -4.0 °F 72% 29.85 in 10.0 mi WNW 25.3 mph 40.3 mph N/A   Mostly Cloudy
12:35 AM 3.2 °F -20.7 °F -2.2 °F 78% 29.85 in 7.0 mi WNW 27.6 mph 39.1 mph N/A   Overcast
12:55 AM 3.2 °F -18.6 °F -2.2 °F 78% 29.85 in 10.0 mi WNW 21.9 mph 31.1 mph N/A   Overcast
1:17 AM 3.2 °F -20.3 °F -0.4 °F 85% 29.84 in 10.0 mi WNW 26.5 mph 42.6 mph N/A   Overcast
1:35 AM 3.2 °F -20.3 °F -0.4 °F 85% 29.83 in 10.0 mi WNW 26.5 mph 39.1 mph N/A   Overcast
1:55 AM 3.2 °F -21.8 °F -0.4 °F 85% 29.82 in 10.0 mi WNW 31.1 mph 44.9 mph N/A   Overcast
2:15 AM 3.2 °F -22.2 °F -2.2 °F 78% 29.81 in 10.0 mi NW 32.2 mph 40.3 mph N/A   Mostly Cloudy
2:37 AM 3.2 °F -22.9 °F -2.2 °F 78% 29.82 in 10.0 mi NW 34.5 mph 49.5 mph N/A   Scattered Clouds
2:55 AM 3.2 °F -22.9 °F -2.2 °F 78% 29.84 in 10.0 mi WNW 34.5 mph 42.6 mph N/A   Scattered Clouds
3:15 AM 3.2 °F -20.3 °F -2.2 °F 78% 29.85 in 10.0 mi NW 26.5 mph 41.4 mph N/A   Scattered Clouds
3:35 AM 3.2 °F -20.3 °F -2.2 °F 78% 29.86 in 10.0 mi NW 26.5 mph 39.1 mph N/A   Scattered Clouds
3:55 AM 3.2 °F -18.6 °F -2.2 °F 78% 29.87 in 10.0 mi WNW 21.9 mph 32.2 mph N/A   Clear
4:15 AM 3.2 °F -19.5 °F -2.2 °F 78% 29.88 in 10.0 mi WNW 24.2 mph 34.5 mph N/A   Scattered Clouds
4:35 AM 3.2 °F -19.5 °F -0.4 °F 85% 29.88 in 7.0 mi WNW 24.2 mph 32.2 mph N/A   Mostly Cloudy
4:55 AM 3.2 °F -21.5 °F -0.4 °F 85% 29.88 in 10.0 mi WNW 29.9 mph 39.1 mph N/A   Overcast
5:17 AM 5.0 °F -20.1 °F 1.4 °F 85% 29.90 in 7.0 mi WNW 33.4 mph 41.4 mph N/A   Overcast
5:35 AM 5.0 °F -18.3 °F 1.4 °F 85% 29.90 in 7.0 mi WNW 27.6 mph 39.1 mph N/A   Overcast
5:55 AM 5.0 °F -17.9 °F 1.4 °F 85% 29.89 in 5.0 mi West 26.5 mph 33.4 mph N/A   Overcast
6:15 AM 5.0 °F -17.5 °F 1.4 °F 85% 29.89 in 5.0 mi WNW 25.3 mph 41.4 mph N/A   Overcast
6:37 AM 5.0 °F -18.3 °F 1.4 °F 85% 29.88 in 4.0 mi WNW 27.6 mph 34.5 mph N/A   Overcast
6:55 AM 5.0 °F -15.7 °F 1.4 °F 85% 29.88 in 7.0 mi WNW 20.7 mph 28.8 mph N/A   Overcast
7:15 AM 5.0 °F -17.1 °F 1.4 °F 85% 29.89 in 5.0 mi West 24.2 mph 33.4 mph N/A   Overcast
7:35 AM 5.0 °F -16.2 °F 1.4 °F 85% 29.89 in 4.0 mi WNW 21.9 mph 31.1 mph N/A   Overcast
7:55 AM 3.2 °F -19.0 °F 1.4 °F 92% 29.89 in 7.0 mi WNW 23.0 mph 33.4 mph N/A   Overcast
8:15 AM 3.2 °F -21.5 °F -0.4 °F 85% 29.89 in 10.0 mi West 29.9 mph 39.1 mph N/A   Overcast
8:35 AM 3.2 °F -21.1 °F -0.4 °F 85% 29.90 in 7.0 mi WNW 28.8 mph 36.8 mph N/A   Overcast
8:55 AM 3.2 °F -19.9 °F 1.4 °F 92% 29.91 in 7.0 mi West 25.3 mph 36.8 mph N/A   Unknown
9:17 AM 5.0 °F -16.2 °F 1.4 °F 85% 29.92 in 10.0 mi WNW 21.9 mph 35.7 mph N/A   Overcast
9:35 AM 6.8 °F -15.1 °F 1.4 °F 79% 29.92 in 10.0 mi WNW 25.3 mph 33.4 mph N/A   Overcast
9:55 AM 6.8 °F -13.4 °F 1.4 °F 79% 29.93 in 10.0 mi WNW 20.7 mph 34.5 mph N/A   Overcast
10:15 AM 6.8 °F -15.1 °F 1.4 °F 79% 29.93 in 10.0 mi WNW 25.3 mph 33.4 mph N/A   Overcast
10:37 AM 8.6 °F -11.9 °F 3.2 °F 79% 29.94 in 10.0 mi WNW 23.0 mph 33.4 mph N/A   Mostly Cloudy
10:55 AM 8.6 °F -12.3 °F 1.4 °F 73% 29.93 in 10.0 mi West 24.2 mph 36.8 mph N/A   Scattered Clouds
11:15 AM 10.4 °F -9.5 °F 3.2 °F 73% 29.94 in 10.0 mi WNW 23.0 mph 32.2 mph N/A   Scattered Clouds
11:35 AM 10.4 °F -9.9 °F 3.2 °F 73% 29.94 in 10.0 mi WNW 24.2 mph 33.4 mph N/A   Mostly Cloudy
11:55 AM 10.4 °F -7.2 °F 3.2 °F 73% 29.94 in 10.0 mi WNW 17.3 mph 28.8 mph N/A   Overcast
12:16 PM 12.2 °F -6.7 °F 5.0 °F 73% 29.94 in 10.0 mi WNW 21.9 mph 27.6 mph N/A   Mostly Cloudy
12:35 PM 12.2 °F -6.7 °F 5.0 °F 73% 29.94 in 10.0 mi West 21.9 mph 32.2 mph N/A   Scattered Clouds
12:55 PM 12.2 °F -7.5 °F 6.8 °F 79% 29.93 in 10.0 mi West 24.2 mph 32.2 mph N/A   Scattered Clouds
1:15 PM 15.8 °F -0.2 °F 6.8 °F 68% 29.92 in 10.0 mi West 17.3 mph 31.1 mph N/A   Scattered Clouds
1:35 PM 15.8 °F -1.1 °F 6.8 °F 68% 29.91 in 10.0 mi West 19.6 mph 28.8 mph N/A   Scattered Clouds
1:55 PM 15.8 °F -1.1 °F 6.8 °F 68% 29.92 in - WNW 19.6 mph 31.1 mph N/A   Scattered Clouds
2:15 PM 15.8 °F -1.5 °F 6.8 °F 68% - 10.0 mi West 20.7 mph 32.2 mph N/A   Clear
2:37 PM 15.8 °F -1.5 °F 6.8 °F 68% 29.92 in 10.0 mi West 20.7 mph 31.1 mph N/A   Clear
2:55 PM 17.6 °F 0.9 °F 6.8 °F 63% 29.92 in 10.0 mi WNW 20.7 mph 27.6 mph N/A   Unknown
3:15 PM 17.6 °F 2.2 °F 5.0 °F 58% 29.93 in 10.0 mi WNW 17.3 mph - N/A   Clear
3:36 PM 17.6 °F 2.2 °F 6.8 °F 63% 29.93 in 10.0 mi West 17.3 mph 28.8 mph N/A   Clear
3:55 PM 17.6 °F 1.3 °F 6.8 °F 63% 29.93 in 10.0 mi West 19.6 mph 26.5 mph N/A   Clear
4:16 PM 19.4 °F 2.5 °F 6.8 °F 58% 29.93 in 10.0 mi West 23.0 mph 28.8 mph N/A   Clear
4:37 PM 19.4 °F 4.1 °F 6.8 °F 58% 29.94 in 10.0 mi WNW 18.4 mph 27.6 mph N/A   Clear
4:56 PM 19.4 °F 2.8 °F 6.8 °F 58% 29.94 in 10.0 mi West 21.9 mph 34.5 mph N/A   Clear
5:16 PM 17.6 °F -0.3 °F 6.8 °F 63% 29.94 in 10.0 mi WNW 24.2 mph 34.5 mph N/A   Clear
5:36 PM 17.6 °F -0.6 °F 5.0 °F 58% 29.94 in 10.0 mi WNW 25.3 mph 34.5 mph N/A   Clear
5:56 PM 17.6 °F -0.3 °F 6.8 °F 63% 29.95 in 10.0 mi West 24.2 mph 33.4 mph N/A   Clear
6:16 PM 15.8 °F -1.9 °F 6.8 °F 68% 29.96 in 10.0 mi WNW 21.9 mph 28.8 mph N/A   Clear
6:36 PM 15.8 °F -3.7 °F 6.8 °F 68% 29.97 in 10.0 mi WNW 27.6 mph 38.0 mph N/A   Clear
6:57 PM 15.8 °F -3.4 °F 6.8 °F 68% 29.98 in 10.0 mi West 26.5 mph 34.5 mph N/A   Clear
7:16 PM 15.8 °F -2.3 °F 8.6 °F 73% 29.98 in 10.0 mi WNW 23.0 mph 31.1 mph N/A   Clear
7:36 PM 15.8 °F -2.7 °F 8.6 °F 73% 29.99 in 10.0 mi WNW 24.2 mph 33.4 mph N/A   Clear
7:56 PM 15.8 °F -2.3 °F 8.6 °F 73% 29.99 in 10.0 mi WNW 23.0 mph 34.5 mph N/A   Clear
8:16 PM 15.8 °F -3.1 °F 8.6 °F 73% 30.00 in 10.0 mi WNW 25.3 mph 36.8 mph N/A   Clear
8:36 PM 15.8 °F -2.3 °F 8.6 °F 73% 30.00 in 10.0 mi WNW 23.0 mph 29.9 mph N/A   Clear
8:56 PM 15.8 °F -2.7 °F 8.6 °F 73% 30.00 in 10.0 mi WNW 24.2 mph 36.8 mph N/A   Clear
9:16 PM 15.8 °F -3.7 °F 8.6 °F 73% 30.01 in 10.0 mi West 27.6 mph 36.8 mph N/A   Clear
9:37 PM 15.8 °F -2.7 °F 8.6 °F 73% 30.02 in 10.0 mi WNW 24.2 mph 35.7 mph N/A   Scattered Clouds
9:56 PM 15.8 °F -3.7 °F 8.6 °F 73% 30.02 in 10.0 mi WNW 27.6 mph 36.8 mph N/A   Clear
10:16 PM 15.8 °F -4.7 °F 10.4 °F 79% 30.02 in 10.0 mi West 31.1 mph 38.0 mph N/A   Clear
10:36 PM 15.8 °F -3.7 °F 10.4 °F 79% 30.01 in 10.0 mi West 27.6 mph 36.8 mph N/A   Clear
10:57 PM 15.8 °F -3.4 °F 10.4 °F 79% 30.01 in 10.0 mi WNW 26.5 mph 34.5 mph N/A   Clear
11:16 PM 15.8 °F -2.3 °F 10.4 °F 79% 30.01 in 10.0 mi WNW 23.0 mph 33.4 mph N/A   Clear
11:36 PM 15.8 °F -3.1 °F 10.4 °F 79% 30.01 in 10.0 mi WNW 25.3 mph 38.0 mph N/A   Scattered Clouds
11:56 PM 15.8 °F -2.3 °F 10.4 °F 79% 30.01 in 10.0 mi WNW 23.0 mph 38.0 mph N/A   Mostly Cloudy